Location: Christianberg
(48.9086°N, 14.0209°E)
Time: 21:13:24
(UTC+00:00)

Cosmos 1656 - Pass Details

Date: 20 June 2021
Orbit: 797 x 850 km, 71.1° (Epoch: 04 August)

Event Time Altitude Azimuth Distance (km) Brightness Sun altitude
Rises 01:55:51 0° 332° (NNW) 3,424 7.2 -8.3°
Reaches altitude 10° 01:58:19 10° 334° (NNW) 2,487 6.5 -8.0°
Maximum altitude 02:04:03 79° 61° (ENE) 872 3.9 -7.4°
Drops below altitude 10° 02:09:44 10° 148° (SSE) 2,466 6.0 -6.8°
Sets 02:12:10 0° 150° (SSE) 3,393 6.7 -6.6°
